Location: Unspecified
(0.0000°N, 0.0000°E)
Time: 14:52:16
(UTC+00:00)

ARIANE 1 DEB - Pass Details

Date: 17 February 2026
Orbit: 376 x 19604 km, 19.8° (Epoch: 20 January)

Event Time Altitude Azimuth Distance (km) Brightness Sun altitude
Exits shadow 03:40:07 10° 171° (S) 2,426 ? -37.5°
Reaches altitude 10° 03:40:08 10° 170° (S) 2,429 ? -37.5°
Maximum altitude 03:42:21 12° 147° (SSE) 2,843 ? -36.9°
Drops below altitude 10° 03:45:35 10° 125° (SE) 3,897 ? -36.2°
Sets 03:56:35 0° 100° (E) 8,025 ? -33.5°
